Date String (YYYY-MM-DD hh:mm:ss) UTC,Instrument flags,Ambient pressure (hPa),Sample flow (lpm),Bypass flow (lpm),Sample temperature (°C),Ambient temperature (°C),ASC tube jacket temperature (°C),LED temperature (°C),Box temperature (°C),Sample RH (%),Span deviation,Mass concentration (μg/m³),Mass concentration (μg/m³),Mass concentration (μg/m³)
DateTimeUTC,F1_M11,P_M11,Q1_M11,Q2_M11,T1_M11,T2_M11,T3_M11,T4_M11,T5_M11,U1_M11,ZSPAN_M11,X0_M11,X2_M11,X1_M11
2022-06-19 03:00:00,,0822.7,5.01,0.00,29.2,27.8,00.0,38.0,31.1,26.3,0000.0,0008.81,0005.12,0004.44
2022-06-19 03:01:00,,0822.7,5.00,0.00,29.2,27.9,00.0,38.0,31.2,26.1,0000.0,0009.00,0005.09,0004.38
2022-06-19 03:02:00,,0822.7,5.00,0.00,29.3,28.1,00.0,38.0,31.2,26.1,0000.0,0009.10,0005.07,0004.33
2022-06-19 03:03:00,,0822.7,5.00,0.00,29.3,28.2,00.0,38.0,31.3,26.0,0000.0,0009.12,0005.05,0004.28
2022-06-19 03:04:00,,0822.7,5.00,0.00,29.3,28.3,00.0,38.1,31.3,26.0,0000.0,0009.55,0005.02,0004.25
2022-06-19 03:05:00,,0822.7,5.00,0.00,29.4,28.4,00.0,38.1,31.4,25.4,0000.0,0009.60,0004.95,0004.20
2022-06-19 03:06:00,,0822.8,5.01,0.00,29.4,28.5,00.0,38.1,31.4,25.3,0000.0,0009.49,0004.88,0004.14
2022-06-19 03:07:00,,0822.7,5.00,0.00,29.4,28.0,00.0,38.0,31.3,25.1,0000.0,0009.41,0004.84,0004.09
2022-06-19 03:08:00,,0822.7,4.99,0.00,29.3,27.2,00.0,38.0,31.1,25.4,0000.0,0009.51,0004.82,0004.05
2022-06-19 03:09:00,,0822.7,4.99,0.00,29.2,26.9,00.0,37.9,31.0,25.6,0000.0,0009.43,0004.81,0004.01
2022-06-19 03:10:00,,0822.8,5.00,0.00,29.2,26.9,00.0,37.9,30.9,25.5,0000.0,0009.28,0004.75,0003.94
2022-06-19 03:11:00,,0822.7,5.01,0.00,29.1,27.1,00.0,37.9,30.9,25.4,0000.0,0009.21,0004.71,0003.90
2022-06-19 03:12:00,,0822.7,5.00,0.00,29.1,27.2,00.0,37.9,31.0,25.1,0000.0,0008.91,0004.63,0003.86
2022-06-19 03:13:00,,0822.7,5.00,0.00,29.1,27.4,00.0,37.9,31.0,25.0,0000.0,0008.75,0004.57,0003.82
2022-06-19 03:14:00,,0822.7,5.00,0.00,29.1,27.6,00.0,37.9,31.0,24.8,0000.0,0008.57,0004.46,0003.76
2022-06-19 03:15:00,,0822.6,4.99,0.00,29.1,27.8,00.0,38.0,31.1,24.7,0000.0,0008.17,0004.38,0003.70
2022-06-19 03:16:00,,0822.6,5.00,0.00,29.2,27.9,00.0,38.0,31.1,24.6,0000.0,0007.91,0004.35,0003.65
2022-06-19 03:17:00,,0822.6,5.01,0.00,29.2,28.0,00.0,38.0,31.2,24.3,0000.0,0008.03,0004.34,0003.63
2022-06-19 03:18:00,,0822.6,5.00,0.00,29.2,28.2,00.0,38.0,31.2,24.2,0000.0,0008.57,0004.29,0003.59
2022-06-19 03:19:00,,0822.6,5.00,0.00,29.3,28.3,00.0,38.0,31.3,24.0,0000.0,0008.51,0004.26,0003.56
2022-06-19 03:20:00,,0822.6,5.00,0.00,29.3,28.4,00.0,38.0,31.3,23.8,0000.0,0008.32,0004.20,0003.52
2022-06-19 03:21:00,,0822.6,4.99,0.00,29.3,28.5,00.0,38.1,31.4,23.7,0000.0,0008.48,0004.14,0003.47
2022-06-19 03:22:00,,0822.6,4.99,0.00,29.4,28.5,00.0,38.1,31.4,23.5,0000.0,0008.49,0004.08,0003.42
2022-06-19 03:23:00,,0822.6,5.01,0.00,29.4,27.9,00.0,38.0,31.2,23.5,0000.0,0008.51,0004.05,0003.39
2022-06-19 03:24:00,,0822.6,5.01,0.00,29.3,27.1,00.0,38.0,31.0,23.5,0000.0,0008.41,0004.02,0003.37
2022-06-19 03:25:00,,0822.6,5.00,0.00,29.2,26.8,00.0,37.9,30.9,23.5,0000.0,0008.35,0003.99,0003.35
2022-06-19 03:26:00,,0822.6,4.99,0.00,29.1,26.8,00.0,37.9,30.9,23.6,0000.0,0008.28,0003.93,0003.32
2022-06-19 03:27:00,,0822.6,5.00,0.00,29.1,27.0,00.0,37.9,30.9,23.6,0000.0,0008.11,0003.87,0003.29
2022-06-19 03:28:00,,0822.6,4.99,0.00,29.1,27.2,00.0,37.9,30.9,23.6,0000.0,0008.01,0003.88,0003.28
2022-06-19 03:29:00,,0822.6,4.99,0.00,29.1,27.3,00.0,37.9,31.0,23.6,0000.0,0007.53,0003.88,0003.25
2022-06-19 03:30:00,,0822.6,5.00,0.00,29.1,27.5,00.0,37.9,31.0,23.5,0000.0,0007.54,0003.88,0003.24
2022-06-19 03:31:00,,0822.6,5.00,0.00,29.1,27.7,00.0,37.9,31.1,23.4,0000.0,0007.67,0003.90,0003.24
2022-06-19 03:32:00,,0822.6,4.99,0.00,29.1,27.9,00.0,37.9,31.1,23.4,0000.0,0007.47,0003.91,0003.23
2022-06-19 03:33:00,,0822.6,5.00,0.00,29.2,28.0,00.0,37.9,31.2,23.3,0000.0,0007.47,0003.94,0003.23
2022-06-19 03:34:00,,0822.6,4.99,0.00,29.2,28.1,00.0,38.0,31.2,23.2,0000.0,0007.59,0003.94,0003.22
2022-06-19 03:35:00,,0822.6,4.99,0.00,29.2,28.2,00.0,38.0,31.2,23.2,0000.0,0008.31,0003.91,0003.21
2022-06-19 03:36:00,,0822.6,5.00,0.00,29.3,28.3,00.0,38.0,31.3,23.1,0000.0,0008.30,0003.91,0003.20
2022-06-19 03:37:00,,0822.7,5.01,0.00,29.3,28.4,00.0,38.0,31.3,23.1,0000.0,0008.26,0003.93,0003.20
2022-06-19 03:38:00,,0822.7,5.00,0.00,29.4,28.5,00.0,38.1,31.4,23.1,0000.0,0008.37,0003.98,0003.20
2022-06-19 03:39:00,,0822.7,4.99,0.00,29.4,28.4,00.0,38.1,31.3,23.0,0000.0,0008.36,0003.96,0003.18
2022-06-19 03:40:00,,0822.8,5.02,0.00,29.3,27.5,00.0,38.0,31.1,23.0,0000.0,0008.23,0003.93,0003.17
2022-06-19 03:41:00,,0822.7,5.00,0.00,29.2,26.9,00.0,38.0,30.9,23.1,0000.0,0008.13,0003.88,0003.15
2022-06-19 03:42:00,,0822.6,4.99,0.00,29.2,26.8,00.0,37.9,30.9,23.1,0000.0,0008.21,0003.84,0003.14
2022-06-19 03:43:00,,0822.6,4.99,0.00,29.1,26.9,00.0,37.9,30.9,23.1,0000.0,0008.55,0003.83,0003.13
2022-06-19 03:44:00,,0822.6,5.00,0.00,29.1,27.1,00.0,37.9,30.9,23.0,0000.0,0008.64,0003.82,0003.11
2022-06-19 03:45:00,,0822.7,4.99,0.00,29.1,27.2,00.0,37.9,30.9,22.9,0000.0,0008.58,0003.80,0003.09
2022-06-19 03:46:00,,0822.9,5.00,0.00,29.1,27.4,00.0,37.9,31.0,23.0,0000.0,0007.82,0003.83,0003.08
2022-06-19 03:47:00,,0823.0,5.00,0.00,29.1,27.6,00.0,37.9,31.0,23.0,0000.0,0007.83,0003.82,0003.07
2022-06-19 03:48:00,,0822.9,5.00,0.00,29.1,27.8,00.0,37.9,31.1,22.9,0000.0,0007.84,0003.82,0003.07
2022-06-19 03:49:00,,0822.9,5.00,0.00,29.1,27.9,00.0,37.9,31.1,22.9,0000.0,0007.73,0003.76,0003.03
2022-06-19 03:50:00,,0822.9,5.00,0.00,29.2,28.0,00.0,38.0,31.1,22.9,0000.0,0008.12,0003.78,0003.04
2022-06-19 03:51:00,,0822.9,5.00,0.00,29.2,28.1,00.0,38.0,31.2,23.0,0000.0,0008.11,0003.78,0003.06
2022-06-19 03:52:00,,0822.9,5.01,0.00,29.2,28.2,00.0,38.0,31.2,23.1,0000.0,0008.21,0003.82,0003.07
2022-06-19 03:53:00,,0822.9,4.99,0.00,29.3,28.3,00.0,38.0,31.3,23.1,0000.0,0008.22,0003.86,0003.07
2022-06-19 03:54:00,,0823.0,5.00,0.00,29.3,28.4,00.0,38.0,31.3,23.1,0000.0,0007.73,0003.85,0003.10
2022-06-19 03:55:00,,0823.0,5.00,0.00,29.3,28.5,00.0,38.1,31.3,23.1,0000.0,0007.82,0003.86,0003.12
2022-06-19 03:56:00,,0822.9,5.00,0.00,29.4,28.5,00.0,38.1,31.4,23.0,0000.0,0007.76,0003.88,0003.13
2022-06-19 03:57:00,,0822.9,5.00,0.00,29.4,28.4,00.0,38.1,31.4,22.9,0000.0,0007.73,0003.86,0003.15
2022-06-19 03:58:00,,0822.9,5.01,0.00,29.4,27.6,00.0,38.0,31.2,22.9,0000.0,0007.78,0003.88,0003.17
2022-06-19 03:59:00,,0823.0,4.99,0.00,29.3,27.0,00.0,38.0,31.0,22.9,0000.0,0007.80,0003.88,0003.19
